map of KOE home
Great Circle Mapper logo
KOE - Airport
Location
City:  Kupang, Indonesia
Name:Eltari
ICAO / IATA:WATT / KOE

Details
Type:Airport (Aerodrome, Airfield)
Use:Public/Civil, Military, International (customs port of entry)
Latitude:1010'18"S (-10.171582)
Longitude:12340'16"E (123.671136)
Datum:WGS 1984
Elevation:335 ft (102 m)
Runways:2
Longest:8202 × 148 ft (2500 × 45 m), paved

Time
Time Zone:UTC+8
Local Time:

Weather
METAR:WATT 311300Z 15006KT 8000 FEW020 27/24 Q1010 NOSIG
TAF:WATT 302300Z 3100/3124 11008KT 9000 FEW020
TEMPO 3105/3107 11008G20KT
BECMG 3112/3114 00000KT

Related Locations
Nearby:
Farthest:OGL: 12173 mi / 19590 km
Ogle, GY

Find:

   beyond  
but within

Other Information
Maps:
NOTAMs:
Links:
Sources:

  
flag of Indonesia   

Sectional Chart

Flight Planning
at skyvector.com

Satellite Image

Google Maps Satellite View

 

Copyright © 2004-2014 Karl L. Swartz. All rights reserved.
The Great Circle Mapper name and logo are trademarks of the Great Circle Mapper.
All other trademarks mentioned herein belong to their respective owners.
Please see credits for attibutions and further copyright information.

  Follow gcmap on Facebook Follow gcmap on Twitter

hCard Microformat

Geo Microformat